STARLINK-4480 (53416 NORAD) Tracking and Keplerian Element Data

This shows tracking and keplerian element data for the satellite.

Feedback or suggestion? Click here.




ElementValue
Catalog53416
NameSTARLINK-4480
Epoch Orbit797
Epoch Day270.25001157
Epoch Year2022
RAAN11.4911
Inclination53.2182
Eccentricity0.0001677
Argument of Perigee36.8633
Mean Anonmoly235.5277
Mean Motion15.4987032
Decay Rate0.00042649
L11 53416U 22097AE 22270.25001157 .00042649 00000+0 75568-3 0 9991
L22 53416 53.2182 11.4911 0001677 36.8633 235.5277 15.49870320 7972

Live tracking and technical data element details for STARLINK-4480 (NORAD 53416). STARLINK-4480 can be tracked NOW for your location showing map with azimuth and elevation plus other details from your city location.

Track the satellite on the map from your city or location and see movement details for azimuth, elevation, latitude, longitude, range, height, and movement on the map or in text.







IsCatalogInMostPopularTable: catalog: 53416, numindb: 2
Update: records affected: 1



GetName: 53416 STARLINK-4480

Hit Count: updated at: Wed, 05 Oct 2022 07:54:24 GMT